Simultaneous Nadir Overpasses (SNOs) Predictions

Prediction of SNOs between TERRA and METOP-C Satellite Orbit:

Table of predicted SNOs for the next 14.0 days since TLE Epoch: 3/2/2024
Index Date (TERRA) Time (TERRA) Lat,Lon (TERRA) SZA (TERRA ) Date (METOP-C) Time (METOP-C) Lat,Lon (METOP-C) SZA (METOP-C ) Distance(km) Time Diff (sec)
1 03/04/2024 09:18:02 -79.43,-122.20 94.12 03/04/2024 09:16:51 -79.43,-122.22 94.14 0.42 71
2 03/04/2024 10:07:17 79.64, 46.86 86.14 03/04/2024 10:07:24 79.64, 46.88 86.15 0.57 7
3 03/07/2024 00:38:37 79.44,-172.30 84.88 03/07/2024 00:37:48 79.43,-172.43 84.86 2.90 49
4 03/07/2024 01:27:53 -79.70, -2.90 94.80 03/07/2024 01:28:22 -79.70, -2.86 94.79 0.86 29
5 03/09/2024 15:59:12 -79.53, 138.06 96.04 03/09/2024 15:58:45 -79.53, 138.08 96.04 0.28 27
6 03/09/2024 16:48:27 79.73, -52.85 84.22 03/09/2024 16:49:18 79.73, -52.83 84.23 0.35 51
7 03/12/2024 07:19:45 79.58, 88.24 83.00 03/12/2024 07:19:40 79.58, 88.30 83.01 1.40 5
8 03/12/2024 08:08:58 -79.94,-101.51 96.53 03/12/2024 08:10:12 -79.91,-101.46 96.54 3.73 74
9 03/14/2024 21:51:03 79.36,-131.02 81.71 03/14/2024 21:50:03 79.36,-131.09 81.69 1.64 60



Historial Predications of SNOs between TERRA and METOP-C
